STARLINK-32038, 60281

Orbit data source: Space-Track

STARLINK-32038, 60281 is a payload satellite owned by SpaceX/Seattle (US) in LEO that was launched on Sun, 28 Jul 2024 UTC via an FALCON 9 launch vehicle from the Air Force Eastern Test Range (AFETR). Payloads include a variety of satellites, spacecraft, and rockets equipped with specific instruments for various scientific and technological missions. These include communications satellites like Starlink; space stations such as the ISS; scientific satellites like the Hubble; Earth observation satellites from companies like Planet Labs, Umbra, and HawkEye 360; GPS; miniature CubeSats for education and research; and military/defense satellites.

Loading next visibility...
STARLINK-32038 details
Identifier
60281, 2024-132D
Orbit
LEO
Last TLE update1 day ago
Origin
Flag of USSpaceX/Seattle (US)
ManufacturerSpaceX/Seattle
MissionOperational spacecraft
Bus & MotorSTARLINK V2M, Unknown motor
Mass730 kg wet, ~700 kg dry
Launch date (UTC)
2024-07-28 (6 months ago)
Launch vehicle
FALCON 9
Launch site
Air Force Eastern Test Range (AFETR)
Object type
Payload
Rocket body
Debris
Shape & HBRUnknown
Radar Cross SectionLarge (>1 m²)

Expand to show TLE details & history

TLE from 1 day ago
0 STARLINK-32038
1 60281U 24132D   25022.08486568 -.00000822  00000-0 -15658-4 0  9998
2 60281  53.1595 164.1647 0000761  83.7602 276.3485 15.30195879 28548
Epoch: 2025-01-22T02:02Z
Definitive object data (Epoch: 2025-01-22T02:02:12.394Z)
Latitude-0.00007°
Longitude11.9312°
Altitude476.069 km
Speed7.629 km/s
True Right ascension10h 56m 39s
True Declination0° 00' 00"
Sunlit
Object was in full shadow at TLE epoch
Visualization TLE readout
Latitude47.16813°
Longitude131.67488°
Altitude479.936 km
Speed7.632 km/s
Apparent Right ascension22h 42m 05s
Apparent Declination9° 35' 41"
Sunlit
Object is in daylight
Visualization observer readout
Local Sidereal Time14:13:06
Azimuth56.947° ENE
Elevation-20.534°
Doppler factor1
Orbital elements
Apogee altitude476.005 km
Perigee altitude474.962 km
Semi-major axis6,853.621 km
Eccentricity0.0000761
Inclination53.1595°
RAAN164.1647°
Arg. of periapsis83.7602°
True anomaly276.33983°
Mean anomaly276.3485°
Eccentric anomaly276.34417°
Mean motion3.82528 °/min
BSTAR-0.000015658
Orbital period94.11 mins
Loading maneuver chart data...
Loading historical data...
Loading historical data...
Loading historical data...
Loading historical data...
Loading historical data...
Loading historical data...
Loading historical data...

STARLINK-32038 Visibility forecast

Observer location: undefined°, undefined

Span
Click to sort rows by Start time (UTC) header in descending order
Start Az.
Max El. time (UTC)
Max El. Az.
Max El.
End time (UTC)
End Az.
5 mins2025-01-23 17:42:06.212Z334.709° NNW2025-01-23 17:44:06.212Z19.495° NNE27.755°2025-01-23 17:47:06.212Z91.198° ESE
5 mins2025-01-23 19:20:06.212Z281.926° WNW2025-01-23 19:22:06.212Z235.087° WSW27.785°2025-01-23 19:25:06.212Z167.437° S
5 mins2025-01-24 10:38:06.212Z179.472° S2025-01-24 10:40:06.212Z132.707° SE25.076°2025-01-24 10:43:06.212Z73.043° E
5 mins2025-01-24 12:16:06.212Z274.45° WNW2025-01-24 12:18:06.212Z333.278° NNW30.23°2025-01-24 12:21:06.212Z34.373° NE
|